AAY144K MYNN-KMCO

Flight info

Callsign AAY144K
Flight time N/A
Altitude 32000
Route PEACH DCT CCLUB RIDES2
Aircraft B38M/M-SDE1FGHILORVWXY/HB1

Departure

Time 2026-05-06 16:27
Airport Lynden Pindling International Airport (MYNN)

Arrival

Time N/A
Airport Orlando International Airport (KMCO)
Time Latitude Longitude Altitude Speed Heading
2026-05-06 15:09 25.05157 -77.46866 10 ft 0 kts 210°
2026-05-06 16:04 25.05159 -77.46867 19 ft 2 kts 202°
2026-05-06 16:04 25.05170 -77.46865 19 ft 4 kts 183°
2026-05-06 16:04 25.05196 -77.46861 19 ft 4 kts 199°
2026-05-06 16:05 25.05212 -77.46847 23 ft 2 kts 257°
2026-05-06 16:05 25.05213 -77.46841 19 ft 0 kts 257°
2026-05-06 16:11 25.05212 -77.46845 19 ft 3 kts 257°
2026-05-06 16:11 25.05199 -77.46909 19 ft 12 kts 257°
2026-05-06 16:11 25.05167 -77.46992 19 ft 8 kts 225°
2026-05-06 16:11 25.05139 -77.47018 19 ft 6 kts 221°
2026-05-06 16:12 25.05102 -77.47054 21 ft 2 kts 220°
2026-05-06 16:12 25.05095 -77.47060 20 ft 3 kts 220°
2026-05-06 16:12 25.05074 -77.47080 20 ft 6 kts 219°
2026-05-06 16:12 25.05023 -77.47119 20 ft 8 kts 196°
2026-05-06 16:13 25.05005 -77.47115 20 ft 4 kts 149°
2026-05-06 16:13 25.04950 -77.47054 20 ft 18 kts 134°
2026-05-06 16:13 25.04854 -77.46947 21 ft 21 kts 134°
2026-05-06 16:13 25.04748 -77.46827 22 ft 23 kts 134°
2026-05-06 16:14 25.04632 -77.46703 22 ft 20 kts 136°
2026-05-06 16:14 25.04530 -77.46590 21 ft 22 kts 135°
2026-05-06 16:14 25.04439 -77.46489 20 ft 20 kts 134°
2026-05-06 16:20 25.04388 -77.46432 19 ft 21 kts 135°
2026-05-06 16:20 25.04290 -77.46325 19 ft 23 kts 135°
2026-05-06 16:21 25.04193 -77.46216 20 ft 19 kts 135°
2026-05-06 16:21 25.04096 -77.46107 21 ft 21 kts 134°
2026-05-06 16:21 25.03989 -77.45987 20 ft 23 kts 134°
2026-05-06 16:21 25.03871 -77.45858 22 ft 23 kts 134°
2026-05-06 16:22 25.03773 -77.45748 21 ft 20 kts 135°
2026-05-06 16:22 25.03695 -77.45661 20 ft 16 kts 135°
2026-05-06 16:22 25.03610 -77.45568 21 ft 19 kts 134°
2026-05-06 16:22 25.03513 -77.45458 21 ft 21 kts 135°
2026-05-06 16:23 25.03432 -77.45370 20 ft 15 kts 135°
2026-05-06 16:23 25.03354 -77.45285 19 ft 17 kts 134°
2026-05-06 16:23 25.03275 -77.45201 20 ft 12 kts 142°
2026-05-06 16:23 25.03206 -77.45181 20 ft 7 kts 185°
2026-05-06 16:24 25.03195 -77.45183 21 ft 0 kts 188°
2026-05-06 16:25 25.03170 -77.45187 21 ft 8 kts 188°
2026-05-06 16:26 25.03099 -77.45206 25 ft 10 kts 208°
2026-05-06 16:26 25.03096 -77.45254 25 ft 7 kts 314°
2026-05-06 16:26 25.03139 -77.45302 23 ft 14 kts 314°
2026-05-06 16:26 25.03411 -77.45601 20 ft 101 kts 315°
2026-05-06 16:27 25.04114 -77.46388 57 ft 175 kts 315°
2026-05-06 16:27 25.05013 -77.47397 813 ft 193 kts 315°
2026-05-06 16:27 25.06013 -77.48418 1859 ft 199 kts 325°
2026-05-06 16:27 25.07232 -77.49266 2715 ft 217 kts 327°
2026-05-06 16:28 25.08600 -77.50219 3310 ft 249 kts 327°
2026-05-06 16:28 25.10035 -77.51269 4276 ft 258 kts 324°
2026-05-06 16:28 25.11550 -77.52464 5347 ft 268 kts 323°
2026-05-06 16:28 25.13077 -77.53671 6466 ft 271 kts 323°
2026-05-06 16:29 25.14608 -77.54879 7519 ft 275 kts 322°
2026-05-06 16:29 25.16184 -77.56123 8549 ft 280 kts 322°
2026-05-06 16:29 25.17776 -77.57380 9583 ft 283 kts 322°
2026-05-06 16:29 25.19375 -77.58641 10514 ft 290 kts 322°
2026-05-06 16:30 25.21054 -77.59965 11197 ft 304 kts 322°
2026-05-06 16:30 25.22231 -77.60895 11620 ft 313 kts 322°
2026-05-06 16:30 25.24619 -77.62781 12735 ft 319 kts 322°
2026-05-06 16:30 25.26423 -77.64206 13645 ft 322 kts 322°
2026-05-06 16:31 25.28264 -77.65661 14423 ft 326 kts 322°
2026-05-06 16:31 25.30113 -77.67124 15208 ft 328 kts 322°
2026-05-06 16:31 25.31929 -77.68560 15948 ft 330 kts 322°
2026-05-06 16:31 25.33810 -77.70048 16699 ft 333 kts 323°
2026-05-06 16:32 25.35701 -77.71546 17437 ft 336 kts 323°
2026-05-06 16:32 25.37608 -77.73056 18160 ft 338 kts 323°
2026-05-06 16:32 25.39531 -77.74581 18796 ft 341 kts 323°
2026-05-06 16:32 25.41465 -77.76113 19405 ft 343 kts 323°
2026-05-06 16:33 25.43381 -77.77706 20010 ft 345 kts 318°
2026-05-06 16:33 25.45193 -77.79449 20596 ft 347 kts 318°
2026-05-06 16:33 25.47002 -77.81182 21180 ft 349 kts 318°
2026-05-06 16:34 25.50687 -77.84716 22334 ft 353 kts 318°
2026-05-06 16:34 25.52552 -77.86508 22906 ft 355 kts 317°
2026-05-06 16:34 25.54421 -77.88303 23478 ft 357 kts 317°
2026-05-06 16:34 25.56313 -77.90121 23965 ft 360 kts 317°
2026-05-06 16:35 25.58207 -77.91941 24419 ft 362 kts 317°
2026-05-06 16:35 25.60119 -77.93779 24882 ft 364 kts 317°
2026-05-06 16:35 25.62045 -77.95633 25356 ft 366 kts 317°
2026-05-06 16:35 25.63949 -77.97465 25789 ft 368 kts 317°
2026-05-06 16:36 25.65887 -77.99331 26241 ft 370 kts 317°
2026-05-06 16:36 25.67837 -78.01210 26686 ft 372 kts 317°
2026-05-06 16:36 25.69798 -78.03100 27114 ft 375 kts 317°
2026-05-06 16:36 25.71772 -78.05003 27536 ft 377 kts 317°
2026-05-06 16:37 25.73783 -78.06943 27975 ft 379 kts 317°
2026-05-06 16:37 25.75751 -78.08843 28382 ft 381 kts 317°
2026-05-06 16:37 25.77761 -78.10784 28801 ft 383 kts 317°
2026-05-06 16:37 25.79771 -78.12725 29194 ft 386 kts 317°
2026-05-06 16:38 25.81801 -78.14688 29608 ft 388 kts 317°
2026-05-06 16:38 25.83848 -78.16667 29999 ft 390 kts 317°
2026-05-06 16:38 25.85899 -78.18651 30408 ft 390 kts 318°
2026-05-06 16:38 25.87839 -78.20527 30848 ft 389 kts 318°
2026-05-06 16:39 25.89874 -78.22498 31326 ft 386 kts 318°
2026-05-06 16:39 25.91867 -78.24429 31818 ft 384 kts 318°
2026-05-06 16:39 25.93880 -78.26379 32097 ft 383 kts 319°
2026-05-06 16:40 25.97833 -78.30215 32111 ft 374 kts 318°
2026-05-06 16:40 26.01751 -78.34019 32105 ft 373 kts 318°
2026-05-06 16:41 26.05654 -78.37811 32108 ft 372 kts 318°
2026-05-06 16:41 26.09557 -78.41607 32106 ft 372 kts 318°
2026-05-06 16:42 26.13431 -78.45379 32111 ft 371 kts 318°
2026-05-06 16:42 26.17311 -78.49159 32109 ft 371 kts 318°
2026-05-06 16:43 26.21205 -78.52957 32112 ft 371 kts 318°
2026-05-06 16:43 26.25073 -78.56732 32110 ft 370 kts 318°
2026-05-06 16:44 26.28944 -78.60515 32119 ft 370 kts 318°
2026-05-06 16:44 26.32809 -78.64295 32116 ft 369 kts 318°
2026-05-06 16:45 26.36659 -78.68064 32125 ft 369 kts 318°
2026-05-06 16:45 26.40519 -78.71846 32125 ft 368 kts 318°
2026-05-06 16:46 26.44335 -78.75588 32132 ft 368 kts 318°
2026-05-06 16:46 26.48178 -78.79360 32129 ft 368 kts 318°
2026-05-06 16:47 26.52005 -78.83121 32131 ft 367 kts 318°
2026-05-06 16:47 26.55230 -78.86290 32121 ft 367 kts 318°
2026-05-06 16:48 26.59059 -78.90060 32125 ft 366 kts 318°
2026-05-06 16:48 26.62888 -78.93831 32123 ft 366 kts 317°
2026-05-06 16:49 26.66704 -78.97594 32119 ft 366 kts 318°
2026-05-06 16:49 26.70511 -79.01352 32114 ft 365 kts 317°
2026-05-06 16:50 26.74315 -79.05109 32111 ft 365 kts 317°
2026-05-06 16:50 26.78016 -79.08768 32113 ft 364 kts 317°
2026-05-06 16:51 26.81814 -79.12527 32112 ft 364 kts 317°
2026-05-06 16:51 26.85609 -79.16286 32117 ft 364 kts 317°
2026-05-06 16:52 26.89398 -79.20042 32115 ft 364 kts 317°
2026-05-06 16:52 26.93179 -79.23796 32115 ft 363 kts 317°
2026-05-06 16:53 26.96962 -79.27553 32111 ft 363 kts 317°
2026-05-06 16:53 27.00737 -79.31306 32120 ft 363 kts 317°
2026-05-06 16:54 27.04507 -79.35059 32113 ft 362 kts 317°
2026-05-06 16:54 27.08269 -79.38806 32116 ft 361 kts 317°
2026-05-06 16:55 27.12007 -79.42532 32122 ft 361 kts 317°
2026-05-06 16:55 27.15756 -79.46272 32120 ft 360 kts 317°
2026-05-06 16:56 27.19503 -79.50014 32122 ft 360 kts 317°
2026-05-06 16:56 27.22591 -79.54353 32121 ft 361 kts 298°
2026-05-06 16:57 27.24883 -79.59383 32116 ft 361 kts 300°
2026-05-06 16:57 27.27163 -79.64408 32115 ft 361 kts 299°
2026-05-06 16:58 27.29437 -79.69450 32113 ft 361 kts 299°
2026-05-06 16:58 27.31692 -79.74457 32112 ft 361 kts 299°
2026-05-06 16:59 27.33961 -79.79502 32113 ft 361 kts 299°
2026-05-06 16:59 27.36221 -79.84531 32115 ft 361 kts 299°
2026-05-06 17:00 27.38482 -79.89571 32114 ft 360 kts 299°
2026-05-06 17:00 27.40755 -79.94639 32134 ft 368 kts 299°
2026-05-06 17:01 27.43104 -79.99889 32109 ft 383 kts 299°
2026-05-06 17:01 27.45525 -80.05305 32113 ft 388 kts 299°
2026-05-06 17:02 27.47950 -80.10736 32116 ft 388 kts 299°
2026-05-06 17:02 27.50361 -80.16144 32117 ft 389 kts 298°
2026-05-06 17:03 27.52789 -80.21597 32116 ft 389 kts 298°
2026-05-06 17:03 27.55216 -80.27055 32116 ft 390 kts 298°
2026-05-06 17:04 27.57646 -80.32526 32119 ft 390 kts 298°
2026-05-06 17:04 27.60075 -80.38002 32118 ft 391 kts 298°
2026-05-06 17:05 27.62505 -80.43489 32119 ft 390 kts 298°
2026-05-06 17:05 27.64933 -80.48977 32115 ft 391 kts 298°
2026-05-06 17:06 27.67340 -80.54427 32122 ft 391 kts 298°
2026-05-06 17:06 27.69766 -80.59924 32117 ft 391 kts 298°
2026-05-06 17:07 27.72188 -80.65423 32109 ft 391 kts 298°
2026-05-06 17:07 27.74611 -80.70928 32104 ft 392 kts 298°
2026-05-06 17:08 27.77033 -80.76435 32098 ft 391 kts 298°
2026-05-06 17:08 27.79487 -80.81939 32102 ft 392 kts 298°
2026-05-06 17:09 27.81941 -80.87436 32091 ft 392 kts 298°
2026-05-06 17:09 27.84393 -80.92934 32096 ft 392 kts 298°
2026-05-06 17:10 27.86842 -80.98434 32088 ft 391 kts 298°
2026-05-06 17:10 27.89288 -81.03932 32083 ft 387 kts 298°
2026-05-06 17:10 27.90475 -81.06598 32107 ft 369 kts 300°
2026-05-06 17:11 27.91929 -81.08914 32089 ft 361 kts 316°
2026-05-06 17:11 27.94010 -81.10524 32085 ft 366 kts 332°
2026-05-06 17:11 27.96388 -81.11559 32057 ft 367 kts 337°
2026-05-06 17:11 27.98784 -81.12414 31639 ft 354 kts 338°
2026-05-06 17:12 28.01103 -81.13220 31278 ft 341 kts 338°
2026-05-06 17:12 28.03328 -81.13983 30539 ft 339 kts 338°
2026-05-06 17:12 28.05608 -81.14759 29515 ft 344 kts 338°
2026-05-06 17:12 28.07919 -81.15542 28452 ft 348 kts 338°
2026-05-06 17:13 28.10249 -81.16330 27418 ft 352 kts 338°
2026-05-06 17:13 28.12508 -81.17062 26407 ft 357 kts 342°
2026-05-06 17:13 28.15052 -81.17599 25348 ft 364 kts 346°
2026-05-06 17:13 28.17550 -81.18109 24319 ft 364 kts 338°
2026-05-06 17:14 28.19990 -81.18899 23373 ft 367 kts 346°
2026-05-06 17:14 28.22567 -81.18830 22524 ft 372 kts
2026-05-06 17:14 28.25092 -81.18653 21577 ft 366 kts 355°
2026-05-06 17:14 28.27625 -81.18621 20797 ft 361 kts 355°
2026-05-06 17:15 28.30129 -81.18617 19974 ft 358 kts 355°
2026-05-06 17:15 28.32608 -81.18629 19191 ft 355 kts 355°
2026-05-06 17:15 28.34930 -81.18647 18501 ft 351 kts 355°
2026-05-06 17:15 28.37360 -81.18669 17649 ft 348 kts 355°
2026-05-06 17:16 28.39778 -81.18693 16815 ft 345 kts 355°
2026-05-06 17:16 28.42176 -81.18719 16022 ft 342 kts 355°
2026-05-06 17:16 28.44544 -81.18745 15244 ft 339 kts 355°
2026-05-06 17:16 28.46882 -81.18771 14695 ft 330 kts 356°
2026-05-06 17:17 28.49138 -81.18796 14335 ft 317 kts 355°
2026-05-06 17:17 28.51288 -81.18820 14050 ft 301 kts 355°
2026-05-06 17:17 28.53361 -81.18844 13440 ft 298 kts 356°
2026-05-06 17:17 28.55270 -81.18865 12787 ft 298 kts 356°
2026-05-06 17:18 28.57340 -81.18889 12121 ft 297 kts 356°
2026-05-06 17:18 28.59394 -81.18912 11502 ft 296 kts 356°
2026-05-06 17:18 28.61447 -81.18939 10890 ft 294 kts 356°
2026-05-06 17:18 28.63486 -81.18978 10279 ft 293 kts 357°
2026-05-06 17:19 28.65500 -81.19016 10066 ft 286 kts 357°
2026-05-06 17:19 28.67459 -81.19054 9890 ft 283 kts 357°
2026-05-06 17:19 28.69430 -81.19092 9232 ft 284 kts 357°
2026-05-06 17:19 28.71429 -81.19123 8495 ft 287 kts 358°
2026-05-06 17:20 28.73411 -81.19137 8020 ft 282 kts 358°
2026-05-06 17:20 28.75368 -81.19129 7400 ft 281 kts 359°
2026-05-06 17:20 28.77301 -81.19127 6878 ft 277 kts 359°
2026-05-06 17:20 28.78046 -81.19129 6653 ft 277 kts 359°
2026-05-06 17:21 28.79106 -81.19138 6378 ft 290 kts 359°
2026-05-06 17:21 28.79222 -81.19140 6367 ft 293 kts 359°
2026-05-06 17:21 28.79435 -81.19142 6353 ft 298 kts 359°
2026-05-06 17:22 28.81500 -81.19165 6268 ft 285 kts 359°
2026-05-06 17:22 28.83414 -81.19186 6095 ft 269 kts 359°
2026-05-06 17:22 28.85260 -81.19462 5474 ft 269 kts 339°
2026-05-06 17:22 28.86796 -81.20610 4829 ft 270 kts 312°
2026-05-06 17:23 28.87697 -81.22456 4281 ft 266 kts 284°
2026-05-06 17:23 28.87716 -81.24507 3967 ft 256 kts 253°
2026-05-06 17:23 28.86878 -81.26191 3999 ft 238 kts 224°
2026-05-06 17:23 28.85529 -81.27192 4016 ft 230 kts 205°
2026-05-06 17:24 28.83991 -81.27749 3988 ft 234 kts 188°
2026-05-06 17:24 28.82360 -81.27940 3953 ft 236 kts 184°
2026-05-06 17:24 28.80727 -81.28082 3826 ft 235 kts 184°
2026-05-06 17:24 28.79093 -81.28227 3688 ft 235 kts 184°
2026-05-06 17:25 28.78143 -81.28313 3612 ft 234 kts 184°
2026-05-06 17:25 28.77101 -81.28408 3526 ft 234 kts 184°